User: anonymous   Login
Location: Heilwood
(40.6210°N, 78.9150°W)
Time: 12:36:23
(UTC-04:00)
Language:

BREEZE-M DEB (TANK) - Orbit

View from above orbital plane
View from above orbital plane
View from above satellite
View from above satellite

Ground track
Ground track

The orbit data is extracted from the following two-line orbital elements,

1 29649U 06056B   16239.73323451  .00001755  00000-0  32817-3 0  9998
2 29649  49.4857  88.8628 5386521 337.7839   5.7564  4.98746109173061
Epoch (UTC): 26 August 2016 17:35:51
Eccentricity: 0.5386521
inclination: 49.4857°
perigee height: 298 km
apogee height: 15887 km
right ascension of ascending node: 88.8628°
argument of perigee: 337.7839°
revolutions per day: 4.98746109
mean anomaly at epoch: 5.7564°
orbit number at epoch: 17306

The dashed part of the orbit path shows where the satellite is in the earth's shadow,  

DLR